TimePST,TemperatureF,Dew PointF,Humidity,Sea Level PressureIn,VisibilityMPH,Wind Direction,Wind SpeedMPH,Gust SpeedMPH,PrecipitationIn,Events,Conditions,WindDirDegrees,DateUTC
12:01 AM,39.2,37.4,93,30.22,1.8,Calm,Calm,-,N/A,,Clear,0,2013-01-08 08:01:00
12:23 AM,39.2,39.2,100,30.23,3.0,Calm,Calm,-,N/A,,Clear,0,2013-01-08 08:23:00
12:33 AM,39.2,37.4,93,30.23,1.8,Calm,Calm,-,N/A,,Clear,0,2013-01-08 08:33:00
12:53 AM,39.0,37.9,96,30.22,0.8,Calm,Calm,-,N/A,,Clear,0,2013-01-08 08:53:00
1:00 AM,37.4,37.4,100,30.23,2.0,Calm,Calm,-,N/A,,Clear,0,2013-01-08 09:00:00
1:04 AM,37.4,37.4,100,30.23,2.0,Calm,Calm,-,N/A,,Partly Cloudy,0,2013-01-08 09:04:00
1:07 AM,37.4,37.4,100,30.22,1.0,Calm,Calm,-,N/A,,Mist,0,2013-01-08 09:07:00
1:15 AM,37.4,37.4,100,30.23,0.5,WSW,3.5,-,N/A,Fog,Fog,240,2013-01-08 09:15:00
1:20 AM,39.2,37.4,93,30.23,1.2,WSW,3.5,-,N/A,,Partly Cloudy,240,2013-01-08 09:20:00
1:24 AM,37.4,37.4,100,30.23,3.0,Calm,Calm,-,N/A,,Partly Cloudy,0,2013-01-08 09:24:00
1:53 AM,36.0,36.0,100,30.22,1.5,Calm,Calm,-,N/A,,Clear,0,2013-01-08 09:53:00
2:08 AM,37.4,37.4,100,30.23,3.0,Calm,Calm,-,N/A,,Clear,0,2013-01-08 10:08:00
2:24 AM,35.6,35.6,100,30.23,1.8,Calm,Calm,-,N/A,,Clear,0,2013-01-08 10:24:00
2:46 AM,37.4,37.4,100,30.22,1.0,East,3.5,-,N/A,,Mist,100,2013-01-08 10:46:00
2:49 AM,37.4,37.4,100,30.22,0.8,NNE,3.5,-,N/A,,Mist,30,2013-01-08 10:49:00
2:53 AM,37.9,37.9,100,30.23,0.5,Variable,3.5,-,N/A,Fog,Fog,0,2013-01-08 10:53:00
3:05 AM,37.4,37.4,100,30.23,0.5,Calm,Calm,-,N/A,Fog,Fog,0,2013-01-08 11:05:00
3:23 AM,35.6,35.6,100,30.23,1.0,WNW,3.5,-,N/A,,Mostly Cloudy,300,2013-01-08 11:23:00
3:32 AM,35.6,35.6,100,30.24,0.8,NNW,3.5,-,N/A,,Mist,330,2013-01-08 11:32:00
3:53 AM,35.1,35.1,100,30.23,0.2,Calm,Calm,-,N/A,Fog,Fog,0,2013-01-08 11:53:00
4:53 AM,35.1,35.1,100,30.22,0.2,Calm,Calm,-,N/A,Fog,Fog,0,2013-01-08 12:53:00
5:53 AM,33.1,33.1,100,30.22,0.2,Calm,Calm,-,N/A,Fog,Fog,0,2013-01-08 13:53:00
6:30 AM,33.8,33.8,100,30.23,0.2,Calm,Calm,-,N/A,Fog,Fog,0,2013-01-08 14:30:00
6:53 AM,34.0,34.0,100,30.24,0.2,Calm,Calm,-,N/A,Fog,Fog,0,2013-01-08 14:53:00
7:53 AM,36.0,36.0,100,30.25,0.2,Calm,Calm,-,N/A,Fog,Fog,0,2013-01-08 15:53:00
8:53 AM,37.9,37.9,100,30.28,0.2,Calm,Calm,-,N/A,Fog,Fog,0,2013-01-08 16:53:00
9:53 AM,39.0,39.0,100,30.29,0.2,Calm,Calm,-,N/A,Fog,Fog,0,2013-01-08 17:53:00
10:53 AM,44.1,44.1,100,30.27,1.0,Calm,Calm,-,N/A,,Overcast,0,2013-01-08 18:53:00
11:02 AM,42.8,42.8,100,30.26,3.0,Calm,Calm,-,N/A,,Mostly Cloudy,0,2013-01-08 19:02:00
11:19 AM,44.6,42.8,93,30.25,4.0,Calm,Calm,-,N/A,,Partly Cloudy,0,2013-01-08 19:19:00
11:53 AM,48.9,43.0,80,30.23,5.0,Calm,Calm,-,N/A,,Haze,0,2013-01-08 19:53:00
12:53 PM,52.0,43.0,71,30.21,6.0,Variable,4.6,-,N/A,,Haze,0,2013-01-08 20:53:00
1:53 PM,53.1,44.1,71,30.19,6.0,Variable,3.5,-,N/A,,Haze,0,2013-01-08 21:53:00
2:53 PM,54.0,44.1,69,30.19,7.0,Calm,Calm,-,N/A,,Clear,0,2013-01-08 22:53:00
3:53 PM,53.1,44.1,71,30.19,7.0,SE,3.5,-,N/A,,Clear,130,2013-01-08 23:53:00
4:53 PM,48.9,44.1,83,30.18,6.0,Calm,Calm,-,N/A,,Haze,0,2013-01-09 00:53:00
5:53 PM,43.0,41.0,93,30.17,7.0,Calm,Calm,-,N/A,,Clear,0,2013-01-09 01:53:00
6:53 PM,45.0,42.1,90,30.18,5.0,SW,3.5,-,N/A,,Clear,230,2013-01-09 02:53:00
7:53 PM,43.0,41.0,93,30.18,5.0,SW,3.5,-,N/A,,Clear,230,2013-01-09 03:53:00
9:53 PM,43.0,41.0,93,30.19,6.0,WSW,3.5,-,N/A,,Clear,240,2013-01-09 05:53:00
10:53 PM,39.9,39.0,97,30.19,5.0,Calm,Calm,-,N/A,,Clear,0,2013-01-09 06:53:00
11:53 PM,39.9,39.9,100,30.19,5.0,Calm,Calm,-,N/A,,Clear,0,2013-01-09 07:53:00